#timestamp,LO_Frequency,Hit,StdDev 
1508194815.2,286046996.3,N
1508194835.0,286046992.0,N
1508194835.9,286046992.0,N
1508194855.7,286046994.7,N
1508194875.6,286046992.2,N
1508194895.4,286046995.0,N
1508194915.2,286046997.7,N
1508194935.1,286046997.3,N
1508194936.0,286046997.3,N
1508194955.8,286046999.2,N
1508194975.6,286047000.7,N
1508194995.5,286047000.0,N
1508195015.3,286047002.7,N
1508195035.1,286047001.7,N
1508195055.9,286047007.1,N
1508195075.7,286047007.5,N
1508195095.5,286047006.6,N
1508195115.4,286047003.2,N
1508195135.2,286047004.4,N
1508195155.0,286047001.3,N
1508195155.9,286047001.3,N
1508195175.7,286047001.5,N
1508195195.6,286047007.5,N
1508195215.4,286047008.9,N
1508195235.2,286047006.1,N
1508195255.1,286047008.3,N
1508195256.0,286047008.3,N
1508195275.8,286047007.9,N
1508195295.6,286047008.1,N
1508195315.5,286047007.5,N
1508195335.3,286047005.3,N
1508195355.1,286047004.7,N
1508195375.9,286047003.6,N
1508195395.7,286046997.0,N
1508195415.5,286047001.9,N
1508195435.4,286047004.3,N
1508195455.2,286047004.0,N
1508195475.0,286047003.1,N
1508195475.9,286047003.1,N
1508195495.8,286047007.5,N
1508195515.6,286047007.0,N
1508195535.4,286047007.9,N
1508195555.3,286047010.8,Y
1508195575.1,286047004.4,P
1508195576.0,286047004.4,P
1508195595.8,286047003.8,P
1508195615.7,286047000.5,N
1508195635.5,286047002.4,N
1508195655.3,286047003.7,N
1508195675.2,286047004.9,Y
1508195695.9,286047004.4,P
1508195715.7,286047001.9,P
1508195735.6,286047002.6,N
1508195755.4,286047001.9,N
1508195775.2,286047003.1,Y
1508195795.1,286046995.4,P
1508195796.0,286046995.4,N
1508195815.8,286046994.2,N
1508195835.6,286046995.1,N
1508195855.5,286046996.3,N
1508195875.3,286046999.2,N
1508195895.1,286046995.1,N
1508195915.8,286046996.0,N
1508195935.7,286046997.0,N
1508195955.5,286046999.5,N
1508195975.3,286046998.4,N
1508195995.2,286046998.8,N
1508196015.9,286046999.3,N
1508196035.7,286046997.3,N
1508196055.6,286047002.2,N
1508196075.4,286046999.9,N
1508196095.2,286046998.2,N
1508196115.1,286046998.7,N
1508196116.0,286046998.7,N
1508196135.8,286047000.8,N
1508196155.6,286046995.5,N
1508196175.5,286046993.8,N
1508196195.3,286046997.0,N
1508196215.1,286046996.5,N
1508196235.8,286046996.3,N
1508196255.7,286046995.2,N
1508196275.5,286046995.6,N
1508196295.3,286046994.8,N
1508196315.2,286046994.4,N
1508196335.9,286046997.3,N
1508196355.7,286047000.2,N
1508196375.6,286046995.4,N
1508196395.4,286046994.2,N
1508196415.2,286046993.0,Y
1508196435.1,286046995.1,P
1508196436.0,286046995.1,P
1508196455.8,286046996.6,P
1508196475.6,286046998.0,N
1508196495.5,286046996.3,Y
1508196515.3,286046998.4,P
1508196535.1,286047001.9,N
1508196555.9,286047005.8,N
1508196575.7,286047005.7,N
1508196595.5,286047007.3,N
1508196615.4,286047000.6,N
1508196635.2,286046999.6,N
1508196655.0,286046993.7,N
1508196655.9,286046993.7,N
1508196675.8,286046995.0,N
1508196695.6,286046996.1,N
1508196715.4,286046995.3,N
1508196735.3,286046997.0,N
1508196755.1,286046996.8,N
1508196756.0,286046996.8,N
1508196775.8,286046998.9,N
1508196795.7,286046998.8,N
1508196815.5,286047000.0,N
1508196835.3,286046999.8,N
1508196855.1,286047002.4,N
1508196875.9,286046999.4,N
1508196895.7,286047001.5,N
1508196915.5,286047000.3,N
1508196935.4,286046998.4,N
1508196955.2,286046999.4,N
1508196975.0,286047000.3,N
1508196975.9,286047000.3,N
1508196995.8,286047000.7,N
1508197015.6,286047002.8,N
1508197035.4,286047003.1,N
1508197055.3,286047003.0,N
1508197075.1,286047003.3,N
1508197076.0,286047003.3,N
1508197095.8,286047004.2,N
1508197115.7,286047002.7,N
1508197135.5,286047000.3,N
1508197155.3,286047000.7,N
1508197175.2,286047001.3,N
1508197195.9,286047004.4,N
1508197215.7,286047001.2,N
1508197235.5,286047000.4,N
1508197255.4,286047002.2,N
1508197275.2,286047000.0,N
1508197295.0,286047001.0,N
1508197295.9,286047001.0,N
1508197315.8,286047001.0,N
1508197335.6,286046998.9,N
1508197355.4,286046996.4,N
1508197375.3,286046992.0,Y
1508197395.1,286046995.5,P
1508197415.8,286047000.3,N
1508197435.7,286047003.8,N
1508197455.5,286047004.1,N
1508197475.3,286047005.4,N
1508197495.2,286047002.9,N
1508197515.9,286047005.9,N
1508197535.7,286047005.3,N
1508197555.6,286047002.2,N
1508197575.4,286047003.8,N
1508197595.2,286047003.5,N
1508197615.1,286047006.0,N
1508197616.0,286047006.0,N
1508197635.8,286047003.2,N
1508197655.6,286047001.8,N
1508197675.5,286047003.2,N
1508197695.3,286047005.6,N
1508197715.1,286047003.3,N
1508197735.9,286047005.3,N
1508197755.7,286047005.0,N
1508197775.5,286047004.8,N
1508197795.4,286047008.7,Y
1508197815.2,286047005.4,P
1508197835.0,286047003.5,P
1508197835.9,286047003.5,P
1508197855.8,286046999.8,N
1508197875.6,286047001.5,N
1508197895.4,286046998.7,N
1508197915.3,286047000.7,N
1508197935.1,286046999.0,N
1508197936.0,286046999.0,N
1508197955.8,286046996.9,N
1508197975.7,286046997.1,N
1508197995.5,286046999.6,N
1508198015.3,286046997.9,N
1508198035.1,286046994.1,N
1508198055.9,286046993.8,N
1508198075.7,286046998.7,N
1508198095.5,286046997.9,N
1508198115.4,286047001.0,N
1508198135.2,286046996.7,N
1508198155.0,286046995.5,N
1508198155.9,286046995.5,N
1508198175.8,286046995.3,N
1508198195.6,286046996.6,N
1508198215.4,286046996.8,N
1508198235.3,286046996.2,N
1508198255.1,286046995.6,N
1508198256.0,286046995.6,N
1508198275.8,286046995.1,N
1508198295.7,286046995.1,N
1508198315.5,286046995.0,N
1508198335.3,286046995.0,N
1508198355.1,286046994.6,N
1508198375.9,286046991.7,Y
1508198395.7,286046996.7,P
